QPF
0.01 0.03 0.06 0.12 0.15 0.13 0.13 0.12 0.09 0.06 0.05 0.03 0.03 0.05 0.07 0.05 0.04 0.03 0.06 0.08 0.05 0.02 0.03 0.04 0.02 0.01 0.01 0.01 0.01 0.03 0.04 0.03 0.02 0.02 0.02 0.01 0.01 0.01 0.00 0.01 0.01 0.00 0.00 0.00 0.00 0.00 0.01 0.01 0.01
0.02 0.06 0.10 0.16 0.13 0.11 0.13 0.16 0.15 0.07 0.04 0.02 0.01 0.02 0.04 0.03 0.01 0.02 0.07 0.09 0.03 0.02 0.02 0.02 0.01 0.01 0.01 0.00 0.01 0.01 0.00 0.01 0.01 0.01 0.01 0.01 0.01 0.00 0.01 0.00 0.00 0.00 0.00 0.00 0.00 0.00 0.00 0.01 0.00
0.03 0.07 0.12 0.13 0.13 0.11 0.12 0.12 0.13 0.08 0.06 0.03 0.01 0.01 0.02 0.03 0.02 0.03 0.06 0.03 0.01 0.01 0.04 0.04 0.03 0.01 0.01 0.01 0.01 0.00 0.00 0.00 0.00 0.00 0.00 0.00 0.00 0.00 0.00 0.00 0.00 0.00 0.00 0.00 0.00 0.00 0.00 0.00 0.00
0.04 0.08 0.11 0.11 0.11 0.10 0.10 0.09 0.08 0.09 0.06 0.02 0.01 0.02 0.03 0.04 0.02 0.03 0.03 0.01 0.00 0.01 0.04 0.05 0.03 0.01 0.00 0.00 0.00 0.00 0.00 0.00 0.00 0.00 0.00 0.00 0.00 0.00 0.00 0.00 0.00 0.00 0.00 0.00 0.00 0.00 0.00 0.00 0.00
0.07 0.08 0.08 0.09 0.11 0.09 0.11 0.11 0.10 0.08 0.05 0.03 0.01 0.03 0.04 0.04 0.03 0.02 0.02 0.01 0.00 0.01 0.03 0.02 0.01 0.00 0.00 0.00 0.00 0.00 0.00 0.00 0.00 0.00 0.00 0.00 0.00 0.00 0.00 0.00 0.00 0.00 0.00 0.00 0.00 0.00 0.00 0.00 0.00
0.08 0.06 0.07 0.09 0.09 0.09 0.13 0.10 0.08 0.06 0.06 0.03 0.01 0.02 0.06 0.06 0.05 0.03 0.02 0.01 0.00 0.00 0.02 0.01 0.01 0.01 0.00 0.00 0.00 0.00 0.00 0.00 0.00 0.00 0.00 0.00 0.00 0.00 0.00 0.00 0.00 0.00 0.00 0.00 0.00 0.00 0.00 0.00 0.00
0.09 0.07 0.07 0.08 0.09 0.14 0.15 0.10 0.07 0.06 0.07 0.03 0.02 0.02 0.05 0.06 0.05 0.04 0.02 0.01 0.01 0.01 0.01 0.01 0.01 0.00 0.00 0.00 0.00 0.00 0.00 0.00 0.00 0.00 0.00 0.00 0.00 0.00 0.00 0.00 0.00 0.00 0.00 0.00 0.00 0.00 0.00 0.00 0.00
0.09 0.08 0.08 0.10 0.11 0.14 0.17 0.12 0.07 0.05 0.04 0.03 0.02 0.02 0.04 0.05 0.03 0.02 0.01 0.01 0.02 0.01 0.01 0.00 0.00 0.00 0.00 0.00 0.00 0.00 0.00 0.00 0.00 0.00 0.00 0.00 0.00 0.00 0.00 0.00 0.00 0.00 0.00 0.00 0.00 0.00 0.00 0.00 0.00
0.08 0.08 0.09 0.11 0.12 0.14 0.16 0.10 0.05 0.04 0.03 0.02 0.02 0.01 0.02 0.03 0.01 0.01 0.01 0.01 0.02 0.01 0.00 0.00 0.00 0.00 0.00 0.00 0.00 0.00 0.00 0.00 0.00 0.00 0.00 0.00 0.00 0.00 0.00 0.00 0.00 0.00 0.00 0.00 0.00 0.00 0.00 0.00 0.00
0.07 0.06 0.09 0.08 0.09 0.11 0.13 0.10 0.05 0.04 0.04 0.04 0.05 0.04 0.03 0.03 0.02 0.01 0.01 0.01 0.01 0.01 0.00 0.00 0.00 0.00 0.00 0.00 0.00 0.00 0.00 0.00 0.00 0.00 0.00 0.00 0.00 0.00 0.00 0.00 0.00 0.00 0.00 0.00 0.00 0.00 0.00 0.00 0.00
0.07 0.07 0.08 0.08 0.07 0.06 0.10 0.07 0.06 0.07 0.05 0.05 0.06 0.03 0.02 0.02 0.01 0.01 0.00 0.01 0.00 0.00 0.00 0.00 0.00 0.00 0.00 0.00 0.00 0.00 0.00 0.00 0.00 0.00 0.00 0.00 0.00 0.00 0.00 0.00 0.00 0.00 0.00 0.00 0.00 0.00 0.00 0.00 0.01
0.07 0.09 0.09 0.07 0.07 0.05 0.05 0.05 0.06 0.08 0.06 0.04 0.03 0.02 0.01 0.02 0.02 0.01 0.01 0.02 0.01 0.01 0.01 0.01 0.01 0.00 0.00 0.00 0.00 0.00 0.00 0.00 0.00 0.00 0.00 0.00 0.00 0.00 0.00 0.00 0.00 0.00 0.00 0.00 0.00 0.00 0.00 0.00 0.00
0.06 0.08 0.05 0.03 0.04 0.04 0.02 0.03 0.04 0.05 0.04 0.04 0.03 0.03 0.02 0.02 0.02 0.01 0.01 0.01 0.01 0.01 0.01 0.01 0.01 0.01 0.00 0.00 0.00 0.00 0.00 0.00 0.00 0.00 0.00 0.00 0.00 0.00 0.00 0.00 0.00 0.00 0.00 0.00 0.00 0.00 0.00 0.00 0.00
0.07 0.06 0.04 0.02 0.02 0.02 0.02 0.03 0.04 0.06 0.04 0.04 0.04 0.04 0.03 0.02 0.02 0.01 0.00 0.00 0.01 0.02 0.02 0.02 0.01 0.01 0.01 0.02 0.02 0.01 0.01 0.01 0.01 0.00 0.00 0.00 0.00 0.00 0.00 0.00 0.00 0.00 0.00 0.00 0.00 0.00 0.00 0.00 0.00
0.08 0.07 0.05 0.03 0.02 0.02 0.03 0.05 0.06 0.08 0.05 0.05 0.04 0.04 0.04 0.03 0.02 0.02 0.01 0.01 0.01 0.03 0.06 0.05 0.02 0.02 0.02 0.03 0.03 0.02 0.01 0.01 0.00 0.00 0.00 0.00 0.00 0.00 0.00 0.00 0.00 0.00 0.00 0.00 0.00 0.00 0.00 0.00 0.00
0.06 0.07 0.09 0.05 0.03 0.03 0.04 0.05 0.06 0.07 0.07 0.07 0.04 0.04 0.04 0.06 0.04 0.02 0.01 0.02 0.03 0.03 0.06 0.07 0.07 0.05 0.04 0.05 0.03 0.01 0.01 0.01 0.00 0.00 0.00 0.00 0.00 0.00 0.00 0.00 0.00 0.00 0.00 0.00 0.00 0.00 0.00 0.00 0.00
0.04 0.07 0.08 0.05 0.03 0.04 0.04 0.05 0.05 0.05 0.05 0.04 0.04 0.03 0.04 0.04 0.05 0.03 0.02 0.03 0.02 0.03 0.04 0.08 0.11 0.07 0.06 0.05 0.02 0.01 0.01 0.00 0.00 0.00 0.00 0.00 0.00 0.00 0.00 0.00 0.00 0.00 0.00 0.00 0.00 0.00 0.00 0.00 0.00
0.03 0.05 0.07 0.05 0.04 0.05 0.04 0.02 0.04 0.05 0.04 0.03 0.03 0.03 0.05 0.04 0.04 0.05 0.04 0.02 0.02 0.04 0.06 0.07 0.07 0.05 0.04 0.02 0.01 0.00 0.00 0.00 0.00 0.00 0.00 0.00 0.00 0.00 0.00 0.00 0.00 0.00 0.00 0.00 0.00 0.00 0.01 0.00 0.00
0.02 0.04 0.06 0.04 0.04 0.05 0.04 0.03 0.06 0.06 0.04 0.04 0.04 0.03 0.02 0.02 0.07 0.10 0.04 0.02 0.02 0.04 0.04 0.04 0.04 0.03 0.02 0.01 0.01 0.01 0.01 0.01 0.01 0.00 0.00 0.00 0.00 0.00 0.00 0.00 0.00 0.00 0.00 0.00 0.00 0.01 0.02 0.02 0.01
0.04 0.04 0.06 0.05 0.04 0.05 0.06 0.05 0.06 0.06 0.04 0.04 0.03 0.02 0.02 0.02 0.04 0.06 0.03 0.02 0.02 0.01 0.01 0.01 0.01 0.02 0.02 0.01 0.03 0.04 0.02 0.01 0.01 0.01 0.00 0.00 0.00 0.00 0.00 0.00 0.00 0.00 0.00 0.00 0.00 0.00 0.01 0.02 0.02
0.04 0.06 0.05 0.04 0.04 0.05 0.06 0.06 0.05 0.05 0.04 0.04 0.04 0.03 0.01 0.02 0.03 0.03 0.02 0.01 0.02 0.01 0.01 0.01 0.01 0.01 0.00 0.01 0.03 0.02 0.01 0.01 0.01 0.01 0.00 0.00 0.00 0.00 0.00 0.00 0.00 0.00 0.00 0.00 0.00 0.00 0.00 0.00 0.01
0.04 0.03 0.04 0.06 0.07 0.07 0.07 0.10 0.06 0.04 0.03 0.04 0.04 0.02 0.01 0.01 0.02 0.03 0.01 0.01 0.01 0.01 0.01 0.01 0.01 0.01 0.00 0.00 0.00 0.00 0.00 0.00 0.00 0.00 0.00 0.00 0.00 0.00 0.00 0.00 0.00 0.00 0.00 0.00 0.00 0.01 0.01 0.00 0.01
0.03 0.04 0.05 0.05 0.09 0.07 0.05 0.07 0.05 0.04 0.03 0.04 0.03 0.02 0.01 0.01 0.02 0.02 0.02 0.01 0.01 0.01 0.01 0.01 0.01 0.00 0.00 0.00 0.00 0.00 0.00 0.00 0.00 0.00 0.00 0.00 0.00 0.00 0.00 0.00 0.00 0.00 0.00 0.00 0.00 0.01 0.01 0.00 0.00
0.01 0.02 0.03 0.04 0.04 0.08 0.04 0.05 0.05 0.03 0.02 0.03 0.02 0.02 0.02 0.02 0.02 0.02 0.03 0.02 0.02 0.02 0.01 0.01 0.01 0.01 0.00 0.00 0.00 0.00 0.00 0.00 0.00 0.00 0.00 0.00 0.00 0.00 0.00 0.00 0.00 0.00 0.00 0.00 0.00 0.01 0.01 0.00 0.00
0.01 0.03 0.06 0.05 0.06 0.06 0.03 0.03 0.03 0.01 0.01 0.02 0.01 0.01 0.01 0.03 0.02 0.02 0.02 0.02 0.03 0.02 0.01 0.01 0.01 0.01 0.01 0.00 0.00 0.00 0.00 0.00 0.00 0.00 0.00 0.00 0.00 0.01 0.01 0.01 0.00 0.01 0.00 0.00 0.00 0.01 0.02 0.01 0.01
0.02 0.04 0.05 0.05 0.05 0.05 0.02 0.02 0.02 0.02 0.02 0.02 0.02 0.02 0.02 0.02 0.02 0.01 0.02 0.02 0.02 0.02 0.01 0.00 0.00 0.00 0.01 0.00 0.00 0.00 0.00 0.00 0.00 0.00 0.00 0.00 0.00 0.01 0.01 0.00 0.00 0.01 0.01 0.00 0.00 0.00 0.01 0.02 0.02
0.03 0.02 0.03 0.04 0.05 0.06 0.03 0.02 0.03 0.03 0.03 0.02 0.02 0.02 0.03 0.02 0.02 0.01 0.02 0.02 0.01 0.02 0.01 0.01 0.00 0.00 0.00 0.00 0.00 0.00 0.00 0.00 0.00 0.00 0.00 0.00 0.00 0.00 0.01 0.00 0.00 0.00 0.00 0.01 0.01 0.01 0.01 0.03 0.02
0.01 0.02 0.04 0.04 0.06 0.06 0.04 0.02 0.02 0.03 0.02 0.02 0.01 0.02 0.03 0.01 0.01 0.01 0.02 0.02 0.01 0.01 0.01 0.01 0.01 0.01 0.01 0.01 0.00 0.01 0.00 0.00 0.00 0.00 0.00 0.00 0.00 0.00 0.00 0.00 0.00 0.00 0.00 0.00 0.00 0.00 0.01 0.02 0.01
0.00 0.01 0.04 0.06 0.06 0.05 0.04 0.03 0.02 0.01 0.01 0.01 0.01 0.02 0.01 0.01 0.01 0.01 0.01 0.01 0.01 0.01 0.01 0.00 0.01 0.01 0.01 0.01 0.00 0.00 0.00 0.00 0.01 0.00 0.00 0.00 0.00 0.00 0.00 0.00 0.00 0.00 0.00 0.00 0.00 0.00 0.01 0.01 0.01
0.01 0.01 0.02 0.05 0.04 0.03 0.02 0.01 0.02 0.01 0.01 0.01 0.01 0.01 0.01 0.01 0.01 0.00 0.00 0.01 0.01 0.00 0.00 0.00 0.00 0.00 0.00 0.00 0.00 0.00 0.00 0.00 0.00 0.01 0.00 0.00 0.00 0.00 0.00 0.00 0.00 0.00 0.00 0.00 0.00 0.00 0.01 0.01 0.01
MSLP
1009.35 1010.19 1011.30 1012.51 1013.65 1014.56 1015.14 1015.38 1015.32 1015.09 1014.84 1014.70 1014.75 1015.01 1015.41 1015.85 1016.20 1016.35 1016.23 1015.87 1015.33 1014.71 1014.12 1013.66 1013.39 1013.30 1013.33 1013.42 1013.50 1013.51 1013.45 1013.31 1013.15 1013.01 1012.92 1012.91 1012.98 1013.08 1013.19 1013.26 1013.28 1013.22 1013.12 1012.98 1012.83 1012.71 1012.62 1012.57 1012.56
1009.79 1010.80 1011.98 1013.17 1014.20 1014.94 1015.32 1015.36 1015.14 1014.81 1014.51 1014.37 1014.45 1014.74 1015.17 1015.63 1015.98 1016.13 1016.04 1015.71 1015.23 1014.69 1014.18 1013.81 1013.59 1013.53 1013.57 1013.66 1013.73 1013.74 1013.69 1013.58 1013.45 1013.33 1013.27 1013.26 1013.30 1013.36 1013.42 1013.44 1013.41 1013.34 1013.23 1013.11 1012.99 1012.89 1012.81 1012.75 1012.70
1010.39 1011.52 1012.72 1013.83 1014.70 1015.24 1015.40 1015.26 1014.91 1014.51 1014.20 1014.08 1014.20 1014.51 1014.95 1015.40 1015.73 1015.86 1015.77 1015.49 1015.07 1014.61 1014.21 1013.92 1013.77 1013.74 1013.80 1013.88 1013.94 1013.95 1013.91 1013.83 1013.74 1013.66 1013.62 1013.61 1013.62 1013.63 1013.62 1013.58 1013.51 1013.42 1013.31 1013.21 1013.12 1013.04 1012.98 1012.91 1012.84
1011.11 1012.31 1013.48 1014.46 1015.14 1015.45 1015.42 1015.13 1014.69 1014.27 1013.98 1013.91 1014.07 1014.41 1014.84 1015.24 1015.53 1015.62 1015.52 1015.26 1014.91 1014.54 1014.24 1014.04 1013.96 1013.97 1014.03 1014.10 1014.14 1014.14 1014.10 1014.05 1013.99 1013.94 1013.92 1013.91 1013.89 1013.86 1013.80 1013.71 1013.60 1013.48 1013.38 1013.30 1013.24 1013.19 1013.14 1013.07 1012.99
1011.92 1013.11 1014.18 1014.99 1015.46 1015.58 1015.38 1014.98 1014.52 1014.13 1013.91 1013.91 1014.12 1014.48 1014.88 1015.22 1015.43 1015.47 1015.35 1015.11 1014.81 1014.54 1014.33 1014.22 1014.19 1014.22 1014.27 1014.31 1014.32 1014.29 1014.25 1014.20 1014.17 1014.16 1014.16 1014.15 1014.12 1014.06 1013.95 1013.82 1013.68 1013.55 1013.46 1013.39 1013.35 1013.32 1013.28 1013.21 1013.11
1012.73 1013.85 1014.77 1015.38 1015.64 1015.58 1015.26 1014.83 1014.40 1014.10 1013.99 1014.09 1014.37 1014.73 1015.08 1015.35 1015.48 1015.44 1015.29 1015.06 1014.82 1014.62 1014.50 1014.46 1014.47 1014.50 1014.53 1014.52 1014.47 1014.41 1014.34 1014.30 1014.29 1014.31 1014.33 1014.34 1014.30 1014.22 1014.09 1013.93 1013.77 1013.64 1013.54 1013.49 1013.47 1013.44 1013.40 1013.32 1013.19
1013.48 1014.47 1015.19 1015.59 1015.65 1015.44 1015.06 1014.65 1014.31 1014.14 1014.18 1014.40 1014.74 1015.10 1015.41 1015.59 1015.62 1015.52 1015.32 1015.10 1014.91 1014.79 1014.74 1014.76 1014.79 1014.82 1014.79 1014.72 1014.62 1014.50 1014.41 1014.36 1014.36 1014.40 1014.44 1014.47 1014.44 1014.35 1014.21 1014.04 1013.88 1013.74 1013.65 1013.59 1013.57 1013.53 1013.47 1013.35 1013.19
1014.11 1014.92 1015.42 1015.60 1015.49 1015.18 1014.78 1014.43 1014.22 1014.22 1014.42 1014.75 1015.15 1015.51 1015.76 1015.86 1015.80 1015.62 1015.40 1015.19 1015.05 1014.99 1015.01 1015.06 1015.12 1015.12 1015.05 1014.92 1014.75 1014.58 1014.46 1014.40 1014.41 1014.47 1014.54 1014.58 1014.56 1014.48 1014.34 1014.17 1014.00 1013.85 1013.75 1013.69 1013.64 1013.58 1013.48 1013.32 1013.11
1014.59 1015.21 1015.49 1015.47 1015.21 1014.83 1014.45 1014.19 1014.13 1014.29 1014.63 1015.07 1015.51 1015.85 1016.04 1016.06 1015.91 1015.68 1015.43 1015.24 1015.15 1015.15 1015.23 1015.33 1015.39 1015.38 1015.27 1015.09 1014.87 1014.66 1014.52 1014.45 1014.47 1014.55 1014.64 1014.70 1014.69 1014.62 1014.48 1014.30 1014.13 1013.98 1013.87 1013.78 1013.70 1013.59 1013.44 1013.22 1012.96
1014.95 1015.37 1015.46 1015.27 1014.90 1014.48 1014.14 1013.98 1014.05 1014.34 1014.79 1015.29 1015.74 1016.05 1016.17 1016.10 1015.89 1015.62 1015.37 1015.20 1015.15 1015.22 1015.35 1015.49 1015.57 1015.56 1015.43 1015.23 1014.99 1014.76 1014.61 1014.55 1014.58 1014.67 1014.78 1014.84 1014.85 1014.77 1014.64 1014.46 1014.28 1014.12 1013.99 1013.87 1013.75 1013.59 1013.38 1013.11 1012.79
1015.22 1015.48 1015.40 1015.09 1014.65 1014.22 1013.93 1013.85 1014.01 1014.39 1014.89 1015.40 1015.82 1016.07 1016.11 1015.97 1015.71 1015.41 1015.17 1015.04 1015.04 1015.16 1015.35 1015.53 1015.64 1015.64 1015.52 1015.32 1015.09 1014.88 1014.75 1014.71 1014.75 1014.85 1014.96 1015.03 1015.03 1014.96 1014.82 1014.64 1014.46 1014.28 1014.13 1013.98 1013.82 1013.61 1013.34 1013.02 1012.65
1015.47 1015.60 1015.42 1015.03 1014.56 1014.14 1013.89 1013.87 1014.08 1014.48 1014.97 1015.43 1015.78 1015.94 1015.90 1015.69 1015.39 1015.08 1014.86 1014.77 1014.82 1014.99 1015.22 1015.44 1015.59 1015.62 1015.54 1015.38 1015.19 1015.03 1014.93 1014.92 1014.98 1015.09 1015.20 1015.26 1015.25 1015.17 1015.03 1014.85 1014.66 1014.48 1014.30 1014.13 1013.93 1013.68 1013.37 1013.00 1012.60
1015.72 1015.79 1015.57 1015.16 1014.70 1014.31 1014.10 1014.09 1014.30 1014.66 1015.07 1015.44 1015.67 1015.72 1015.59 1015.33 1015.00 1014.71 1014.51 1014.46 1014.55 1014.77 1015.03 1015.28 1015.46 1015.54 1015.51 1015.42 1015.30 1015.19 1015.15 1015.18 1015.26 1015.37 1015.46 1015.51 1015.49 1015.39 1015.25 1015.07 1014.89 1014.70 1014.53 1014.33 1014.10 1013.83 1013.49 1013.09 1012.66
1016.02 1016.07 1015.86 1015.48 1015.07 1014.73 1014.54 1014.53 1014.69 1014.95 1015.24 1015.46 1015.56 1015.50 1015.29 1014.98 1014.65 1014.38 1014.22 1014.20 1014.32 1014.55 1014.83 1015.10 1015.31 1015.43 1015.47 1015.45 1015.41 1015.39 1015.40 1015.46 1015.56 1015.66 1015.73 1015.75 1015.71 1015.61 1015.47 1015.30 1015.13 1014.96 1014.78 1014.58 1014.34 1014.05 1013.69 1013.29 1012.86
1016.34 1016.42 1016.26 1015.96 1015.63 1015.34 1015.17 1015.13 1015.21 1015.34 1015.48 1015.54 1015.50 1015.33 1015.06 1014.74 1014.42 1014.18 1014.06 1014.07 1014.21 1014.44 1014.71 1014.98 1015.20 1015.36 1015.46 1015.51 1015.55 1015.60 1015.67 1015.76 1015.86 1015.93 1015.98 1015.96 1015.90 1015.79 1015.66 1015.51 1015.36 1015.22 1015.06 1014.87 1014.63 1014.33 1013.97 1013.57 1013.14
1016.65 1016.78 1016.71 1016.51 1016.28 1016.06 1015.91 1015.82 1015.80 1015.79 1015.76 1015.67 1015.50 1015.25 1014.95 1014.63 1014.36 1014.17 1014.09 1014.12 1014.26 1014.47 1014.72 1014.97 1015.19 1015.37 1015.51 1015.63 1015.74 1015.85 1015.95 1016.06 1016.14 1016.18 1016.18 1016.13 1016.04 1015.93 1015.80 1015.68 1015.57 1015.46 1015.32 1015.15 1014.92 1014.63 1014.28 1013.89 1013.49
1016.93 1017.12 1017.14 1017.07 1016.94 1016.79 1016.65 1016.52 1016.39 1016.24 1016.05 1015.82 1015.54 1015.24 1014.94 1014.66 1014.46 1014.33 1014.30 1014.36 1014.49 1014.67 1014.87 1015.08 1015.28 1015.46 1015.64 1015.81 1015.97 1016.12 1016.25 1016.34 1016.40 1016.39 1016.34 1016.24 1016.13 1016.00 1015.90 1015.81 1015.74 1015.66 1015.56 1015.41 1015.20 1014.92 1014.58 1014.21 1013.84
1017.14 1017.39 1017.52 1017.57 1017.55 1017.47 1017.34 1017.16 1016.92 1016.63 1016.30 1015.95 1015.60 1015.27 1015.00 1014.79 1014.67 1014.62 1014.65 1014.74 1014.86 1015.00 1015.15 1015.31 1015.47 1015.65 1015.84 1016.04 1016.23 1016.41 1016.54 1016.62 1016.63 1016.57 1016.46 1016.31 1016.16 1016.03 1015.94 1015.88 1015.85 1015.81 1015.75 1015.62 1015.43 1015.17 1014.85 1014.51 1014.17
1017.30 1017.61 1017.85 1018.01 1018.09 1018.07 1017.95 1017.71 1017.37 1016.95 1016.49 1016.04 1015.63 1015.30 1015.07 1014.95 1014.93 1014.97 1015.06 1015.18 1015.29 1015.39 1015.49 1015.60 1015.73 1015.89 1016.08 1016.30 1016.51 1016.69 1016.82 1016.87 1016.83 1016.71 1016.54 1016.34 1016.16 1016.02 1015.94 1015.91 1015.91 1015.91 1015.88 1015.78 1015.61 1015.37 1015.08 1014.77 1014.47
1017.44 1017.81 1018.15 1018.42 1018.60 1018.63 1018.50 1018.20 1017.76 1017.21 1016.64 1016.09 1015.63 1015.31 1015.13 1015.10 1015.17 1015.30 1015.46 1015.60 1015.71 1015.78 1015.84 1015.90 1015.99 1016.13 1016.32 1016.54 1016.76 1016.95 1017.06 1017.08 1016.99 1016.82 1016.59 1016.35 1016.14 1015.99 1015.92 1015.91 1015.94 1015.97 1015.97 1015.90 1015.75 1015.53 1015.27 1014.99 1014.74
1017.60 1018.04 1018.48 1018.86 1019.11 1019.19 1019.04 1018.68 1018.13 1017.46 1016.77 1016.13 1015.63 1015.30 1015.17 1015.20 1015.35 1015.57 1015.78 1015.95 1016.06 1016.11 1016.12 1016.14 1016.21 1016.33 1016.51 1016.73 1016.96 1017.14 1017.24 1017.23 1017.11 1016.90 1016.63 1016.35 1016.12 1015.95 1015.88 1015.89 1015.94 1015.99 1016.01 1015.97 1015.84 1015.65 1015.42 1015.19 1014.98
1017.82 1018.34 1018.88 1019.36 1019.69 1019.79 1019.63 1019.20 1018.54 1017.76 1016.95 1016.22 1015.66 1015.31 1015.20 1015.27 1015.49 1015.75 1016.01 1016.20 1016.30 1016.33 1016.32 1016.31 1016.34 1016.44 1016.61 1016.83 1017.05 1017.23 1017.33 1017.31 1017.17 1016.93 1016.63 1016.34 1016.09 1015.92 1015.84 1015.85 1015.92 1015.99 1016.02 1016.00 1015.90 1015.74 1015.55 1015.36 1015.20
1018.08 1018.69 1019.34 1019.91 1020.31 1020.44 1020.26 1019.77 1019.03 1018.13 1017.21 1016.39 1015.77 1015.39 1015.27 1015.36 1015.60 1015.90 1016.17 1016.37 1016.47 1016.48 1016.43 1016.39 1016.39 1016.46 1016.62 1016.82 1017.04 1017.22 1017.31 1017.29 1017.14 1016.90 1016.60 1016.30 1016.05 1015.88 1015.80 1015.81 1015.87 1015.95 1016.00 1015.99 1015.92 1015.79 1015.63 1015.48 1015.37
1018.33 1019.04 1019.80 1020.47 1020.93 1021.09 1020.90 1020.37 1019.56 1018.58 1017.58 1016.68 1016.00 1015.58 1015.43 1015.52 1015.75 1016.05 1016.33 1016.51 1016.59 1016.58 1016.50 1016.42 1016.39 1016.43 1016.56 1016.74 1016.95 1017.12 1017.21 1017.20 1017.06 1016.83 1016.54 1016.26 1016.01 1015.83 1015.75 1015.75 1015.81 1015.88 1015.93 1015.93 1015.88 1015.78 1015.66 1015.54 1015.46
1018.50 1019.31 1020.16 1020.91 1021.44 1021.64 1021.47 1020.93 1020.09 1019.07 1018.02 1017.08 1016.35 1015.89 1015.72 1015.78 1015.99 1016.27 1016.53 1016.69 1016.75 1016.70 1016.59 1016.47 1016.39 1016.40 1016.48 1016.63 1016.81 1016.97 1017.06 1017.05 1016.94 1016.73 1016.47 1016.20 1015.97 1015.80 1015.70 1015.69 1015.72 1015.77 1015.81 1015.81 1015.77 1015.69 1015.60 1015.51 1015.46
1018.49 1019.38 1020.31 1021.14 1021.73 1021.98 1021.85 1021.33 1020.52 1019.51 1018.47 1017.53 1016.80 1016.33 1016.13 1016.16 1016.35 1016.60 1016.82 1016.95 1016.98 1016.90 1016.75 1016.59 1016.47 1016.43 1016.46 1016.57 1016.71 1016.84 1016.92 1016.92 1016.82 1016.64 1016.41 1016.17 1015.94 1015.77 1015.67 1015.62 1015.62 1015.64 1015.65 1015.63 1015.59 1015.52 1015.43 1015.37 1015.32
1018.25 1019.19 1020.16 1021.04 1021.69 1022.00 1021.94 1021.50 1020.76 1019.84 1018.87 1017.99 1017.29 1016.84 1016.64 1016.66 1016.82 1017.03 1017.22 1017.32 1017.32 1017.21 1017.04 1016.85 1016.69 1016.59 1016.57 1016.62 1016.72 1016.81 1016.87 1016.86 1016.77 1016.62 1016.41 1016.18 1015.97 1015.79 1015.67 1015.58 1015.54 1015.51 1015.47 1015.42 1015.35 1015.27 1015.19 1015.11 1015.07
1017.76 1018.71 1019.70 1020.60 1021.29 1021.67 1021.69 1021.37 1020.77 1019.99 1019.15 1018.38 1017.78 1017.39 1017.22 1017.23 1017.38 1017.56 1017.72 1017.80 1017.77 1017.65 1017.46 1017.25 1017.06 1016.93 1016.86 1016.86 1016.89 1016.94 1016.96 1016.94 1016.85 1016.70 1016.50 1016.29 1016.08 1015.89 1015.72 1015.59 1015.49 1015.40 1015.31 1015.21 1015.10 1014.99 1014.88 1014.79 1014.72
1017.08 1018.01 1018.97 1019.86 1020.57 1021.01 1021.14 1020.96 1020.53 1019.94 1019.29 1018.69 1018.21 1017.91 1017.80 1017.83 1017.97 1018.14 1018.27 1018.34 1018.31 1018.19 1018.01 1017.80 1017.60 1017.45 1017.34 1017.30 1017.28 1017.27 1017.25 1017.19 1017.08 1016.93 1016.73 1016.51 1016.28 1016.07 1015.86 1015.68 1015.51 1015.35 1015.19 1015.03 1014.87 1014.71 1014.57 1014.44 1014.34
1016.35 1017.20 1018.10 1018.95 1019.65 1020.14 1020.37 1020.34 1020.11 1019.73 1019.29 1018.89 1018.57 1018.39 1018.34 1018.41 1018.54 1018.70 1018.83 1018.89 1018.87 1018.78 1018.62 1018.45 1018.27 1018.11 1018.00 1017.91 1017.85 1017.80 1017.72 1017.62 1017.47 1017.29 1017.07 1016.84 1016.59 1016.34 1016.09 1015.85 1015.61 1015.38 1015.15 1014.92 1014.70 1014.49 1014.29 1014.12 1013.97
Thickness
5785 5784 5781 5768 5747 5731 5729 5739 5749 5752 5758 5767 5772 5769 5761 5756 5751 5743 5763 5772 5771 5770 5769 5769 5768 5768 5768 5767 5767 5767 5766 5766 5765 5765 5764 5763 5762 5761 5760 5760 5759 5759 5759 5758 5758 5758 5759 5759 5759
5783 5781 5770 5754 5732 5717 5724 5741 5746 5755 5765 5771 5772 5769 5762 5758 5765 5762 5764 5769 5770 5769 5768 5767 5767 5766 5766 5765 5765 5765 5764 5763 5763 5762 5761 5760 5760 5759 5758 5757 5757 5756 5756 5756 5756 5756 5756 5756 5756
5781 5777 5757 5739 5727 5720 5728 5743 5749 5762 5771 5771 5766 5767 5761 5758 5765 5764 5767 5770 5769 5767 5766 5766 5765 5764 5764 5763 5763 5762 5762 5761 5760 5760 5759 5758 5757 5756 5756 5755 5755 5754 5754 5753 5753 5753 5753 5753 5754
5772 5760 5748 5732 5726 5736 5742 5749 5756 5758 5764 5769 5765 5757 5761 5770 5770 5769 5770 5770 5767 5766 5765 5765 5764 5763 5762 5761 5761 5760 5760 5759 5758 5757 5756 5755 5755 5754 5753 5753 5752 5752 5751 5751 5751 5751 5751 5751 5751
5763 5746 5731 5722 5729 5741 5749 5755 5759 5756 5758 5762 5762 5750 5752 5768 5774 5771 5769 5768 5766 5764 5764 5763 5762 5762 5761 5760 5760 5759 5758 5757 5757 5756 5755 5753 5752 5752 5751 5751 5750 5750 5749 5749 5748 5748 5748 5748 5749
5745 5736 5718 5714 5726 5739 5747 5755 5756 5755 5755 5758 5757 5749 5748 5764 5766 5766 5768 5767 5766 5764 5762 5762 5761 5760 5760 5759 5758 5757 5757 5756 5755 5754 5753 5751 5750 5750 5749 5748 5748 5747 5747 5746 5746 5746 5746 5746 5746
5737 5726 5717 5720 5724 5732 5744 5754 5753 5751 5751 5756 5760 5745 5748 5758 5765 5767 5766 5765 5764 5763 5762 5761 5760 5759 5759 5758 5757 5756 5755 5754 5753 5752 5751 5750 5749 5748 5747 5746 5746 5745 5745 5744 5744 5744 5743 5743 5744
5742 5726 5718 5718 5721 5728 5745 5753 5756 5754 5752 5764 5764 5746 5744 5757 5766 5766 5764 5762 5761 5761 5760 5759 5758 5758 5757 5756 5756 5755 5754 5753 5752 5750 5749 5748 5748 5747 5746 5745 5744 5743 5743 5742 5742 5741 5742 5742 5742
5743 5716 5708 5717 5722 5730 5744 5747 5755 5762 5759 5761 5764 5761 5762 5766 5764 5761 5757 5756 5756 5757 5758 5758 5757 5756 5755 5755 5754 5753 5752 5751 5750 5749 5748 5747 5746 5745 5744 5743 5743 5742 5741 5740 5739 5739 5739 5739 5740
5729 5709 5716 5730 5734 5736 5743 5745 5750 5750 5748 5750 5755 5761 5765 5763 5759 5755 5753 5752 5752 5754 5757 5758 5757 5756 5754 5754 5753 5751 5750 5749 5748 5747 5746 5745 5744 5743 5742 5741 5741 5740 5739 5738 5737 5737 5737 5737 5737
5728 5719 5728 5735 5742 5744 5743 5746 5750 5742 5736 5745 5748 5753 5757 5757 5755 5754 5754 5754 5755 5757 5758 5758 5757 5756 5754 5753 5752 5750 5748 5747 5747 5746 5744 5743 5742 5741 5740 5739 5738 5737 5737 5735 5735 5734 5734 5734 5734
5728 5731 5735 5739 5746 5745 5744 5745 5742 5741 5742 5753 5757 5758 5756 5753 5752 5753 5753 5754 5756 5756 5757 5758 5757 5755 5753 5752 5750 5748 5747 5746 5745 5744 5743 5742 5740 5738 5737 5735 5735 5734 5733 5732 5731 5730 5731 5731 5731
5725 5729 5738 5743 5745 5746 5747 5743 5741 5742 5752 5756 5756 5754 5752 5751 5752 5755 5757 5756 5756 5755 5755 5756 5756 5754 5753 5751 5749 5747 5746 5745 5744 5743 5741 5740 5738 5735 5734 5733 5732 5731 5730 5729 5727 5727 5727 5727 5727
5729 5731 5733 5739 5742 5745 5741 5739 5740 5739 5751 5751 5749 5748 5750 5752 5753 5753 5753 5753 5753 5754 5754 5755 5754 5753 5751 5749 5747 5746 5744 5743 5741 5740 5739 5737 5735 5733 5731 5729 5728 5727 5726 5725 5724 5724 5723 5723 5723
5733 5724 5725 5733 5739 5741 5739 5727 5732 5741 5747 5745 5745 5746 5748 5751 5752 5752 5753 5753 5753 5753 5753 5752 5752 5750 5748 5747 5745 5743 5742 5740 5739 5737 5736 5734 5733 5730 5728 5726 5725 5724 5723 5722 5721 5720 5720 5719 5719
5724 5713 5705 5723 5734 5738 5729 5711 5729 5740 5741 5737 5739 5742 5744 5747 5750 5752 5753 5753 5753 5751 5750 5750 5751 5747 5745 5743 5742 5740 5739 5738 5736 5734 5733 5731 5730 5728 5726 5723 5721 5720 5720 5718 5717 5715 5714 5713 5713
5703 5695 5699 5713 5730 5732 5723 5713 5728 5738 5737 5734 5736 5737 5740 5742 5746 5749 5751 5752 5751 5750 5748 5746 5746 5744 5742 5740 5739 5737 5736 5734 5733 5731 5730 5728 5727 5725 5723 5720 5718 5717 5716 5714 5713 5710 5709 5707 5707
5692 5695 5700 5705 5720 5723 5715 5714 5726 5734 5735 5732 5733 5734 5736 5738 5742 5746 5749 5749 5749 5747 5746 5744 5742 5741 5740 5738 5735 5734 5732 5731 5729 5728 5727 5725 5724 5722 5720 5717 5715 5714 5711 5709 5708 5706 5705 5704 5703
5706 5702 5700 5708 5722 5718 5711 5712 5721 5729 5730 5728 5727 5730 5733 5737 5741 5744 5746 5746 5744 5743 5742 5740 5738 5737 5736 5734 5731 5728 5726 5726 5726 5725 5724 5722 5721 5719 5717 5714 5712 5710 5707 5705 5703 5702 5700 5699 5699
5708 5701 5699 5708 5722 5716 5708 5711 5719 5725 5726 5728 5729 5730 5732 5733 5735 5738 5741 5741 5741 5739 5738 5737 5737 5736 5735 5733 5731 5728 5725 5724 5723 5722 5721 5720 5718 5716 5714 5711 5709 5706 5704 5702 5700 5697 5694 5693 5694
5708 5703 5703 5704 5712 5714 5708 5701 5709 5720 5727 5729 5731 5732 5734 5735 5734 5735 5737 5737 5737 5737 5736 5737 5735 5734 5733 5732 5729 5726 5723 5720 5719 5717 5717 5716 5715 5714 5711 5709 5706 5704 5701 5698 5696 5694 5691 5688 5688
5702 5715 5714 5708 5697 5689 5698 5680 5698 5709 5716 5722 5725 5728 5731 5735 5736 5734 5735 5734 5735 5736 5736 5735 5734 5732 5731 5730 5726 5722 5717 5714 5714 5714 5714 5713 5712 5711 5709 5707 5704 5701 5699 5697 5694 5693 5690 5687 5684
5712 5721 5715 5708 5696 5688 5691 5681 5688 5705 5707 5715 5722 5727 5730 5733 5734 5734 5735 5735 5736 5736 5735 5733 5732 5730 5729 5728 5724 5720 5716 5714 5713 5712 5711 5710 5709 5708 5707 5704 5702 5699 5697 5695 5693 5691 5688 5686 5683
5725 5715 5706 5697 5688 5676 5687 5682 5685 5698 5710 5716 5722 5727 5729 5731 5732 5733 5734 5734 5733 5733 5732 5731 5729 5727 5726 5724 5722 5719 5715 5713 5711 5709 5707 5706 5706 5705 5704 5702 5699 5697 5695 5693 5691 5689 5687 5684 5682
5716 5693 5675 5672 5666 5672 5691 5687 5692 5714 5722 5724 5724 5725 5728 5730 5729 5728 5729 5728 5729 5729 5729 5728 5726 5724 5723 5722 5720 5717 5715 5712 5710 5707 5705 5704 5702 5701 5700 5699 5697 5695 5693 5691 5689 5687 5685 5683 5681
5709 5698 5675 5665 5663 5672 5687 5684 5701 5724 5728 5729 5729 5727 5727 5727 5727 5727 5727 5727 5727 5727 5726 5725 5724 5722 5721 5720 5718 5717 5715 5712 5709 5708 5706 5703 5701 5700 5699 5697 5695 5693 5691 5689 5687 5685 5683 5682 5680
5707 5697 5699 5683 5678 5670 5677 5693 5708 5720 5720 5722 5723 5723 5723 5724 5725 5726 5726 5726 5726 5725 5724 5724 5722 5721 5719 5718 5716 5715 5713 5711 5709 5707 5705 5703 5701 5700 5698 5696 5693 5691 5689 5687 5685 5683 5681 5680 5679
5723 5710 5692 5682 5669 5664 5675 5683 5689 5705 5710 5716 5718 5719 5722 5724 5724 5724 5725 5725 5725 5724 5724 5723 5721 5719 5718 5717 5715 5714 5712 5710 5708 5705 5703 5701 5700 5698 5696 5694 5691 5689 5687 5685 5683 5681 5679 5678 5677
5716 5709 5698 5684 5681 5667 5665 5680 5714 5713 5716 5716 5718 5721 5722 5723 5723 5723 5724 5725 5724 5723 5721 5720 5718 5716 5715 5714 5712 5711 5709 5708 5706 5703 5702 5700 5698 5696 5694 5692 5689 5687 5684 5682 5680 5678 5677 5676 5675
5727 5718 5703 5686 5681 5680 5674 5685 5725 5722 5722 5721 5720 5721 5722 5723 5722 5722 5722 5722 5720 5719 5718 5717 5715 5714 5713 5711 5710 5708 5707 5705 5703 5701 5700 5698 5696 5694 5692 5689 5687 5684 5682 5680 5678 5676 5676 5674 5673